This demonstration page uses our WeatherBlox Daily Observations layout. Learn more.

38.89511, -77.03637

Hourly Observations for October 13, 2019

Temp ( °F °C ) Dew Point ( °F °C ) Humidity (%) Winds ( mph kmh ) Pressure ( in mb ) Visibility ( mi km ) Precip ( " mm )
12:52 am 00:52 Partly Cloudy 58 14.4 41 5 53 53 NNW 10 17 30.06 1018 10 16.09344 0 0
1:52 am 01:52 Partly Cloudy 57 13.9 40 4.4 53 53 NNW 9 15 30.06 1018 10 16.09344 0 0
2:52 am 02:52 Mostly Cloudy 57 13.9 40 4.4 53 53 N 10 17 30.06 1018 10 16.09344 0 0
3:52 am 03:52 Mostly Cloudy 57 13.9 41 5 55 55 N 9 15 30.06 1018 10 16.09344 0 0
4:52 am 04:52 Cloudy 57 13.9 41 5 55 55 NNE 10 17 30.09 1019 10 16.09344 0 0
5:52 am 05:52 Cloudy 57 13.9 41 5 55 55 NE 12 19 30.09 1019 10 16.09344 0 0
6:52 am 06:52 Cloudy 56 13.3 39 3.9 53 53 NNW 10 17 30.12 1020 10 16.09344 0.001 0.001
7:52 am 07:52 Cloudy 56 13.3 39 3.9 53 53 NE 12 19 30.12 1020 10 16.09344 0.001 0.001
8:52 am 08:52 Mostly Cloudy 57 13.9 39 3.9 51 51 NNE 10 17 30.12 1020 10 16.09344 0 0
9:52 am 09:52 Mostly Cloudy 59 15 38 3.3 46 46 NE 8 13 30.12 1020 10 16.09344 0 0
10:52 am 10:52 Mostly Sunny 61 16.1 38 3.3 43 43 NE 8 13 30.09 1019 10 16.09344 0 0
11:52 am 11:52 Mostly Cloudy 63 17.2 38 3.3 40 40 VRB 6 9 30.09 1019 10 16.09344 0 0
12:52 pm 12:52 Cloudy 65 18.3 38 3.3 37 37 VRB 3 6 30.06 1018 10 16.09344 0 0
1:52 pm 13:52 Cloudy 65 18.3 40 4.4 40 40 VRB 5 7 30.06 1018 10 16.09344 0 0
2:52 pm 14:52 Cloudy 63 17.2 46 7.8 54 54 Calm 30.03 1017 10 16.09344 0.001 0.001
3:10 pm 15:10 Cloudy with Light Rain 62 16.7 48 8.9 60 60 SE 5 7 30.06 1018 10 16.09344 0.01 0.254
3:42 pm 15:42 Cloudy with Light Rain 60 15.6 53 11.7 78 78 ESE 7 11 30.03 1017 5 8.04672 0.02 0.508
3:52 pm 15:52 Cloudy with Light Rain 59 15 52 11.1 78 78 SSE 6 9 30.03 1017 8 12.874752 0.05 1.27
4:00 pm 16:00 Cloudy with Heavy Rain 58 14.4 52 11.1 81 81 SE 5 7 30.06 1018 3 4.828032 0.05 1.27
4:09 pm 16:09 Cloudy with Light Rain 58 14.4 52 11.1 81 81 SE 6 9 30.06 1018 9 14.484096 0.07 1.778
4:18 pm 16:18 Cloudy with Light Rain 58 14.4 52 11.1 81 81 ESE 5 7 30.06 1018 10 16.09344 0.07 1.778
4:52 pm 16:52 Cloudy 59 15 52 11.1 78 78 E 7 11 30.03 1017 10 16.09344 0.07 1.778
5:52 pm 17:52 Cloudy 59 15 53 11.7 81 81 NE 7 11 30 1016 10 16.09344 0 0
6:52 pm 18:52 Cloudy 59 15 53 11.7 81 81 E 3 6 30 1016 10 16.09344 0 0
7:52 pm 19:52 Cloudy 58 14.4 53 11.7 84 84 NE 5 7 30 1016 10 16.09344 0.001 0.001
8:21 pm 20:21 Cloudy 58 14.4 53 11.7 84 84 ENE 5 7 30.03 1017 10 16.09344 0 0
8:52 pm 20:52 Cloudy 58 14.4 52 11.1 81 81 ENE 3 6 30 1016 10 16.09344 0 0
9:52 pm 21:52 Cloudy 59 15 53 11.7 81 81 E 3 6 30 1016 10 16.09344 0 0
10:52 pm 22:52 Cloudy 59 15 53 11.7 81 81 Calm 30 1016 10 16.09344 0 0
11:52 pm 23:52 Cloudy 60 15.6 53 11.7 78 78 Calm 30 1016 10 16.09344 0 0

Powered by AerisWeather